Sigonella, Italy

8:02 AM CEST on June 24, 2017 (GMT +0200)
Sigonella Mil

Weather History for LICZ - October, 2013

Change the Weather History Date:

Thursday, October 17, 2013

  Actual Average Record
Temperature  
Mean Temperature 74 °F -  
Max Temperature 82 °F 72 °F 90 °F (2014)
Min Temperature 59 °F 52 °F 48 °F (2011)
Cooling Degree Days 8    
Growing Degree Days 24 (Base 50)    
Moisture  
Dew Point 55 °F    
Average Humidity 57    
Maximum Humidity 83    
Minimum Humidity 23    
Precipitation  
Precipitation 0.00 in 0.08 in - ()
Sea Level Pressure  
Sea Level Pressure 29.91 in    
Wind  
Wind Speed 12 mph ()    
Max Wind Speed 18 mph    
Max Gust Speed -    
Visibility 10.8 miles    
Events      
Averages and records for this station are not official NWS values.
T = Trace of Precipitation, MM = Missing Value Source: Averaged Metar Reports

Daily Weather History Graph

Daily Weather History Graph

Search for Another Location

Airport or City:

Trip Planner

Search our weather history database for the weather conditions in past years. The results will help you decide how hot, cold, wet, or windy it might be!

Date:

Astronomy

Oct. 17, 2013 Rise Set
Actual Time 7:10 AM CEST 6:20 PM CEST
Civil Twilight 6:43 AM CEST 6:46 PM CEST
Nautical Twilight 6:13 AM CEST 7:17 PM CEST
Astronomical Twilight 5:43 AM CEST 7:47 PM CEST
Moon 5:23 PM CEST (10/17) 5:25 AM CEST (10/17)
Length of Visible Light 12h 03m
Length of Day
11h 10m
Waxing Gibbous, 97% of the Moon is Illuminated
Oct 17
Waxing Gibbous
Oct 19
Full
Oct 27
Last Quarter
Nov 3
New
Nov 10
First Quarter

Hourly Weather History & Observations

Time (CEST) Temp. Dew Point Humidity Pressure Visibility Wind Dir Wind Speed Gust Speed Precip Events Conditions
12:55 AM 69.8 °F 60.8 °F 73% 29.86 in - West 12.7 mph - N/A   Clear
1:55 AM 68.0 °F 60.8 °F 78% 29.86 in - West 11.5 mph - N/A   Clear
2:00 AM 68 °F 61 °F 71% 29.88 in 12 mi West 11.5 mph - -  
2:55 AM 66.2 °F 60.8 °F 83% 29.89 in - West 11.5 mph - N/A   Clear
3:55 AM 66.2 °F 60.8 °F 83% 29.86 in - West 12.7 mph - N/A   Clear
4:55 AM 66.2 °F 60.8 °F 83% 29.89 in - West 13.8 mph - N/A   Clear
5:00 AM 67 °F 60 °F 73% 29.89 in 12 mi West 13.8 mph - -  
5:55 AM 66.2 °F 60.8 °F 83% 29.86 in - West 15.0 mph - N/A   Clear
6:55 AM 66.2 °F 60.8 °F 83% 29.89 in - West 13.8 mph - N/A   Clear
7:55 AM 68.0 °F 60.8 °F 78% 29.89 in - WNW 15.0 mph - N/A   Clear
8:00 AM 67 °F 60 °F 73% 29.90 in 14 mi WNW 15.0 mph - -  
8:55 AM 71.6 °F 62.6 °F 73% 29.92 in - West 11.5 mph - N/A   Clear
9:55 AM 77.0 °F 59.0 °F 54% 29.92 in - NW 13.8 mph - N/A   Clear
10:55 AM 78.8 °F 53.6 °F 42% 29.89 in - NW 18.4 mph - N/A   Clear
11:55 AM 78.8 °F 51.8 °F 39% 29.89 in - NW 18.4 mph - N/A   Clear
12:55 PM 80.6 °F 51.8 °F 37% 29.89 in - NNW 13.8 mph - N/A   Clear
1:55 PM 80.6 °F 50.0 °F 34% 29.86 in 6.2 mi NW 13.8 mph - N/A   Partly Cloudy
2:00 PM 81 °F 50 °F 23% 29.88 in 19 mi NW 13.8 mph - -   Scattered Clouds
2:55 PM 80.6 °F 50.0 °F 34% 29.89 in 6.2 mi NNW 16.1 mph - N/A   Partly Cloudy
3:55 PM 80.6 °F 50.0 °F 34% 29.89 in 6.2 mi NNW 13.8 mph - N/A   Partly Cloudy
4:55 PM 78.8 °F 48.2 °F 34% 29.89 in 6.2 mi NW 16.1 mph - N/A   Partly Cloudy
5:00 PM 79 °F 48 °F 23% 29.90 in 19 mi NW 16.1 mph - -   Scattered Clouds
5:55 PM 77.0 °F 48.2 °F 36% 29.89 in - NW 11.5 mph - N/A   Clear
6:55 PM 73.4 °F 50.0 °F 44% 29.92 in - WNW 16.1 mph - N/A   Clear
7:55 PM 69.8 °F 50.0 °F 49% 29.92 in - WNW 13.8 mph - N/A   Clear
8:00 PM 71 °F 50 °F 36% 29.94 in 12 mi WNW 13.8 mph - -  
8:55 PM 68.0 °F 51.8 °F 56% 29.98 in - WNW 11.5 mph - N/A   Clear
9:55 PM 68.0 °F 53.6 °F 60% 29.98 in - NW 8.1 mph - N/A   Clear
10:55 PM 66.2 °F 53.6 °F 64% 30.01 in - West 3.5 mph - N/A   Clear
11:00 PM 65 °F 53 °F 57% 30.01 in 6 mi West 3.5 mph - -  
11:55 PM 59.0 °F 53.6 °F 82% 30.01 in - WNW 3.5 mph - N/A   Clear